Погода в Охотском-Перевозе

Россия / Республика Саха (Якутия)     61°52′41″N   135°31′35″E
темп.,
°C
ветер,
м/с
пор.,
м/с
влажн.,
%
обл.,
%
осадки,
мм/ч
давл.,
гПа
погр.,
м
1 марта, пн
пн100:00−25юз2298100 0.0 102281
03:00−27ююз2497100 0.1 1022103
06:00−27юз249896 0.1 1024178
09:00−27зюз249598 0.1 1024385
12:00−25зюз2388100 0.1 1024687
15:00−24з1387100 0.1 1024789
18:00−27з1197100 0.1 102519
21:00−28з1198100 0.1 102519
2 марта, вт
вт200:00−31з119999 0.0 102519
03:00−32зюз119999 0.1 102519
06:00−32зюз1198100 0.0 102519
09:00−29з1196100 0.1 1024157
12:00−27зсз1290100 0.1 1024484
15:00−26зсз1291100 0.2 1024576
18:00−28зсз1198100 0.1 102419
21:00−29зсз0198100 0.1 102519
3 марта, ср
ср300:00−29з0198100 0.1 102419
03:00−29зюз0198100 0.1 102319
06:00−30зюз1198100 0.1 102219
09:00−28зюз1196100 0.1 1021177
12:00−26зюз1187100 0.1 1020589
15:00−26з1283100 0.1 1018790
18:00−29зсз1196100 0.1 101819
21:00−30з1198100 0.1 101719
4 марта, чт
чт400:00−30зюз1198100 0.1 101627
03:00−30зюз1198100 0.1 101633
06:00−31з1298100 0.1 101632
09:00−30з2396100 0.1 1017246
12:00−28з2389100 0.1 1017654
15:00−28зсз2387100 0.1 1017777
18:00−31з2496100 0.0 101985
21:00−32зсз2597100 0.1 1020137
5 марта, пт
пт500:00−32з2497100 0.1 1020162
03:00−33з2597100 0.1 1021225
06:00−34з2497100 0.1 1021212
09:00−34з2495100 0.1 1021353
12:00−32з2391100 0.1 1021447
15:00−31зсз2392100 0.1 1021465
18:00−32з1298100 0.1 102249
21:00−32зюз1298100 0.1 102244